軌道要素
The following orbital elements are taken from MPO209874
Epoch 2012 Mar. 14.0 TT = JDT 2456000.5 MPC
M 47.10522 (2000.0) P Q
n 0.03151045 Peri. 310.31226 +0.97546984 -0.19193476
a 9.9273423 Node 61.00541 +0.22002064 +0.86573240
e 0.6190565 Incl. 7.07917 -0.00703617 +0.46224285
P 31.3 H 14.0 G 0.15 U 5
From 21 observations 2008 Oct. 23-Nov. 30, mean residual 0".63.
|